When you browse on this site, cookies collect data to enhance your experience and personalize the content and advertising you see.
Visit our Privacy Policy to learn more. By continuing to use the site, you agree to this use of cookies and data.
  • In Spain
  • List of Countries
  • For 7 days
  • Water Temperature
  • Weather Map
  • Weather Widgets
  • user-avatar
    Login

    Hourly Weather Tirana

    Today, 5 June, Friday

    Time Temperature Precipitation Wind Pressure Humidity
    00:00 +15°C° 0 mm 5 mps 750 mmHg 65%
    01:00 +15°C° 0 mm 4 mps 750 mmHg 64%
    02:00 +15°C° 0 mm 4 mps 750 mmHg 61%
    03:00 +17°C° 0 mm 4 mps 749 mmHg 57%
    04:00 +17°C° 0 mm 4 mps 749 mmHg 54%
    05:00 +18°C° 0 mm 4 mps 749 mmHg 52%
    06:00 +20°C° 0 mm 5 mps 750 mmHg 51%
    07:00 +21°C° 0 mm 5 mps 750 mmHg 49%
    08:00 +22°C° 0 mm 6 mps 750 mmHg 46%
    09:00 +23°C° 0 mm 7 mps 750 mmHg 44%
    10:00 +24°C° 0 mm 7 mps 749 mmHg 41%
    11:00 +23°C° 0.6 mm 6 mps 749 mmHg 52%
    12:00 +21°C° 0.6 mm 5 mps 749 mmHg 63%
    13:00 +20°C° 0.6 mm 3 mps 749 mmHg 73%
    14:00 +22°C° 0 mm 3 mps 748 mmHg 65%
    15:00 +25°C° 0 mm 2 mps 747 mmHg 56%
    16:00 +27°C° 0 mm 2 mps 747 mmHg 47%
    17:00 +25°C° 0 mm 2 mps 747 mmHg 56%
    18:00 +22°C° 0 mm 3 mps 747 mmHg 64%
    19:00 +21°C° 0 mm 4 mps 747 mmHg 73%
    20:00 +20°C° 0 mm 4 mps 747 mmHg 73%
    21:00 +20°C° 0 mm 4 mps 746 mmHg 74%
    22:00 +19°C° 0 mm 5 mps 746 mmHg 74%
    23:00 +19°C° 0 mm 4 mps 746 mmHg 74%

    Tomorrow, 6 June, Saturday

    Time Temperature Precipitation Wind Pressure Humidity
    00:00 +19°C° 0 mm 4 mps 746 mmHg 75%
    01:00 +19°C° 0 mm 4 mps 745 mmHg 75%
    02:00 +19°C° 0 mm 3 mps 745 mmHg 75%
    03:00 +19°C° 0 mm 3 mps 745 mmHg 74%
    04:00 +19°C° 0 mm 2 mps 744 mmHg 74%
    05:00 +20°C° 0 mm 2 mps 745 mmHg 72%
    06:00 +21°C° 0 mm 2 mps 745 mmHg 70%
    07:00 +21°C° 0 mm 2 mps 745 mmHg 68%
    08:00 +24°C° 0 mm 3 mps 746 mmHg 61%
    09:00 +26°C° 0 mm 3 mps 746 mmHg 54%
    10:00 +28°C° 0 mm 3 mps 746 mmHg 47%
    11:00 +27°C° 0.3 mm 4 mps 746 mmHg 48%
    12:00 +27°C° 0.3 mm 4 mps 746 mmHg 50%
    13:00 +27°C° 0.3 mm 5 mps 746 mmHg 51%
    14:00 +26°C° 0.3 mm 4 mps 747 mmHg 56%
    15:00 +25°C° 0.3 mm 3 mps 747 mmHg 61%
    16:00 +24°C° 0.3 mm 2 mps 747 mmHg 67%
    17:00 +23°C° 0 mm 2 mps 747 mmHg 69%
    18:00 +22°C° 0 mm 1 mps 747 mmHg 72%
    19:00 +21°C° 0 mm 1 mps 747 mmHg 74%
    20:00 +21°C° 0 mm 1 mps 748 mmHg 75%
    21:00 +20°C° 0 mm 1 mps 748 mmHg 76%
    22:00 +20°C° 0 mm 1 mps 749 mmHg 77%
    23:00 +19°C° 0 mm 1 mps 749 mmHg 79%

    Day after tomorrow, 7 June, Sunday

    Time Temperature Precipitation Wind Pressure Humidity
    00:00 +19°C° 0 mm 1 mps 749 mmHg 80%
    01:00 +18°C° 0 mm 2 mps 749 mmHg 81%
    02:00 +18°C° 0 mm 2 mps 749 mmHg 82%
    03:00 +17°C° 0 mm 2 mps 749 mmHg 83%
    04:00 +17°C° 0 mm 3 mps 749 mmHg 85%
    05:00 +18°C° 0 mm 3 mps 749 mmHg 79%
    06:00 +20°C° 0 mm 3 mps 749 mmHg 74%
    07:00 +21°C° 0 mm 3 mps 749 mmHg 69%
    08:00 +24°C° 0 mm 3 mps 749 mmHg 64%
    09:00 +25°C° 0 mm 3 mps 750 mmHg 60%
    10:00 +26°C° 0 mm 3 mps 750 mmHg 56%
    11:00 +27°C° 0 mm 3 mps 749 mmHg 57%
    12:00 +27°C° 0 mm 3 mps 749 mmHg 57%
    13:00 +27°C° 0 mm 4 mps 749 mmHg 58%
    14:00 +27°C° 0 mm 3 mps 749 mmHg 58%
    15:00 +26°C° 0 mm 3 mps 749 mmHg 58%
    16:00 +26°C° 0 mm 3 mps 749 mmHg 58%
    17:00 +25°C° 0 mm 3 mps 749 mmHg 66%
    18:00 +22°C° 0 mm 3 mps 750 mmHg 74%
    19:00 +20°C° 0 mm 3 mps 750 mmHg 82%
    20:00 +20°C° 0 mm 3 mps 750 mmHg 83%
    21:00 +19°C° 0 mm 3 mps 750 mmHg 84%
    22:00 +19°C° 0 mm 2 mps 751 mmHg 86%
    23:00 +18°C° 0 mm 2 mps 750 mmHg 85%

    8 June, Monday

    Time Temperature Precipitation Wind Pressure Humidity
    00:00 +18°C° 0 mm 2 mps 750 mmHg 84%
    01:00 +18°C° 0 mm 2 mps 750 mmHg 84%
    02:00 +18°C° 0 mm 2 mps 750 mmHg 82%
    03:00 +18°C° 0 mm 2 mps 750 mmHg 81%
    04:00 +18°C° 0 mm 2 mps 750 mmHg 79%
    05:00 +20°C° 0 mm 2 mps 750 mmHg 74%
    06:00 +21°C° 0 mm 2 mps 750 mmHg 69%
    07:00 +24°C° 0 mm 2 mps 750 mmHg 65%
    08:00 +25°C° 0 mm 2 mps 750 mmHg 61%
    09:00 +26°C° 0 mm 2 mps 750 mmHg 57%
    10:00 +27°C° 0 mm 3 mps 750 mmHg 54%
    11:00 +27°C° 0 mm 3 mps 750 mmHg 55%
    12:00 +27°C° 0 mm 4 mps 749 mmHg 56%
    13:00 +27°C° 0 mm 4 mps 749 mmHg 57%
    14:00 +27°C° 0.1 mm 4 mps 749 mmHg 56%
    15:00 +27°C° 0.1 mm 4 mps 749 mmHg 55%
    16:00 +28°C° 0.1 mm 5 mps 749 mmHg 54%
    17:00 +26°C° 0.1 mm 4 mps 749 mmHg 60%
    18:00 +23°C° 0.1 mm 4 mps 749 mmHg 66%
    19:00 +22°C° 0.1 mm 3 mps 749 mmHg 72%
    20:00 +21°C° 0.1 mm 3 mps 749 mmHg 73%
    21:00 +20°C° 0.1 mm 3 mps 750 mmHg 74%
    22:00 +20°C° 0.1 mm 2 mps 750 mmHg 75%
    23:00 +19°C° 0.2 mm 2 mps 750 mmHg 76%

    9 June, Tuesday

    Time Temperature Precipitation Wind Pressure Humidity
    00:00 +19°C° 0.2 mm 3 mps 750 mmHg 76%
    01:00 +19°C° 0.2 mm 3 mps 750 mmHg 76%
    02:00 +18°C° 0 mm 2 mps 750 mmHg 76%
    03:00 +18°C° 0 mm 2 mps 749 mmHg 76%
    04:00 +18°C° 0 mm 2 mps 749 mmHg 77%
    05:00 +20°C° 0.1 mm 2 mps 750 mmHg 71%
    06:00 +21°C° 0.1 mm 2 mps 750 mmHg 65%
    07:00 +24°C° 0.1 mm 2 mps 750 mmHg 60%
    08:00 +26°C° 0.1 mm 2 mps 750 mmHg 56%
    09:00 +27°C° 0.1 mm 2 mps 750 mmHg 51%
    10:00 +28°C° 0.1 mm 2 mps 750 mmHg 47%
    11:00 +29°C° 0 mm 2 mps 750 mmHg 47%
    12:00 +29°C° 0 mm 3 mps 750 mmHg 48%
    13:00 +29°C° 0 mm 3 mps 750 mmHg 48%
    14:00 +29°C° 0.1 mm 3 mps 749 mmHg 49%
    15:00 +28°C° 0.1 mm 2 mps 749 mmHg 49%
    16:00 +28°C° 0.1 mm 1 mps 749 mmHg 50%
    17:00 +26°C° 0 mm 1 mps 749 mmHg 57%
    18:00 +24°C° 0 mm 1 mps 749 mmHg 64%
    19:00 +20°C° 0 mm 0 mps 750 mmHg 71%
    20:00 +22°C° 0 mm 1 mps 750 mmHg 72%
    21:00 +20°C° 0 mm 2 mps 750 mmHg 73%
    22:00 +19°C° 0 mm 2 mps 750 mmHg 73%
    23:00 +19°C° 0 mm 2 mps 750 mmHg 73%

    10 June, Wednesday

    Time Temperature Precipitation Wind Pressure Humidity
    00:00 +20°C° 0 mm 1 mps 750 mmHg 72%
    01:00 +17°C° 0 mm 0 mps 750 mmHg 72%
    02:00 +19°C° 0 mm 1 mps 750 mmHg 71%
    03:00 +19°C° 0 mm 1 mps 750 mmHg 71%
    04:00 +19°C° 0 mm 1 mps 750 mmHg 70%
    05:00 +21°C° 0 mm 1 mps 750 mmHg 65%
    06:00 +23°C° 0 mm 1 mps 750 mmHg 59%
    07:00 +24°C° 0 mm 1 mps 750 mmHg 54%
    08:00 +26°C° 0 mm 1 mps 750 mmHg 51%
    09:00 +27°C° 0 mm 2 mps 750 mmHg 49%
    10:00 +28°C° 0 mm 2 mps 750 mmHg 47%
    11:00 +28°C° 0.1 mm 2 mps 750 mmHg 48%
    12:00 +28°C° 0.1 mm 3 mps 750 mmHg 49%
    13:00 +29°C° 0.1 mm 4 mps 750 mmHg 50%
    14:00 +28°C° 0.1 mm 4 mps 750 mmHg 53%
    15:00 +27°C° 0.1 mm 4 mps 750 mmHg 56%
    16:00 +27°C° 0.1 mm 4 mps 750 mmHg 60%
    17:00 +25°C° 0.1 mm 3 mps 750 mmHg 66%
    18:00 +24°C° 0.1 mm 2 mps 750 mmHg 72%
    19:00 +22°C° 0.1 mm 1 mps 750 mmHg 78%
    20:00 +21°C° 0 mm 1 mps 751 mmHg 78%
    21:00 +20°C° 0 mm 2 mps 751 mmHg 78%
    22:00 +19°C° 0 mm 2 mps 752 mmHg 78%
    23:00 +20°C° 0 mm 1 mps 752 mmHg 81%
    Show more